ATLAS 5 CENTAUR DEB, 57597

Orbit data source: Space-Track

ATLAS 5 CENTAUR DEB, 57597 is space debris in HEO originally from a launch on Wed, 17 Oct 2018 UTC launched from the Air Force Eastern Test Range (AFETR). Debris objects in space refer to the collection of defunct objects orbiting the Earth. Examples of debris include non-operational satellites, rocket bodies, and fragments generated from explosions, collisions, or faulty payload assembly.

Loading next visibility...
Identifier
57597, 2018-079HY
Orbit
HEO
Country
Flag of USUS
Related business
Flag of USUnited Launch Alliance/Lockheed Martin (US)
Manufacturer
ULA Decatur
Mission
Spacecraft
Bus & Motor
Unknown
Mass
Unknown
Launch date (UTC)
2018-10-17 (8 years ago)
Launch vehicle
Unknown
Launch site
Air Force Eastern Test Range (AFETR)
Object type
Payload
Rocket body
Debris
Shape & HBR
Unknown shape, 1.1 m
Radar Cross Section
RCS unknown

Expand to show TLE details & history
Last TLE update: 1 year ago

TLE from 1 year ago
0 ATLAS 5 CENTAUR DEB
1 57597U 18079HY  25170.97918977 -.00000098  00000-0  00000-0 0  9998
2 57597  12.2021  89.5909 4524887 205.0959 123.4511  1.72104092 14256
Epoch: 2025-06-19T23:30Z
TLE epoch observation values (Epoch: 2025-06-19T23:30:01.996Z)
Latitude
0.00001°
Longitude
-171.41163°
Altitude
33,272.426 km
Speed
2.56 km/s
True Right ascension
05h 58m 08s
True Declination
0° 00' 00"
Sunlit
Object was in daylight at epoch
Visualization orbit readout
Latitude
Unknown
Longitude
Unknown
Altitude
Unknown
Speed
Unknown
Apparent Right ascension
Unknown
Apparent Declination
Unknown
Sunlit
N/A
Visualization observer readout
Local Sidereal Time
21:37:06
Azimuth
Unknown
Elevation
Unknown
Doppler factor
Unknown
Orbital elements
Apogee altitude
36,346.97 km
Perigee altitude
9,726.965 km
Semi-major axis
29,415.105 km
Eccentricity
0.45249
Inclination
12.2021°
RAAN
89.5909°
Arg. of periapsis
205.0959°
True anomaly
154.86384°
Mean anomaly
123.4511°
Eccentric anomaly
140.08599°
Mean motion
0.43022 °/min
Orbital period
836.79 mins
BSTAR
0
Loading maneuver chart data...
Computing Atmospheric mass density...

Documentation

Showing up to 5 results
|